QPF
0.05 0.06 0.08 0.11 0.09 0.06 0.03 0.02 0.02 0.01 0.01 0.01 0.01 0.01 0.01 0.01 0.01 0.01 0.01 0.01 0.01 0.01 0.01 0.00 0.00 0.00 0.00 0.00 0.00 0.01 0.01 0.00 0.00 0.00 0.00 0.00 0.00 0.00 0.00 0.00 0.00 0.01 0.00
0.07 0.10 0.10 0.11 0.12 0.07 0.04 0.03 0.03 0.02 0.02 0.01 0.01 0.01 0.01 0.01 0.01 0.01 0.01 0.01 0.01 0.00 0.01 0.00 0.01 0.01 0.01 0.01 0.01 0.01 0.00 0.00 0.00 0.00 0.00 0.00 0.00 0.00 0.01 0.01 0.01 0.01 0.00
0.03 0.08 0.11 0.10 0.12 0.09 0.05 0.03 0.03 0.02 0.02 0.01 0.01 0.00 0.00 0.00 0.00 0.00 0.01 0.01 0.01 0.01 0.02 0.01 0.01 0.01 0.00 0.01 0.01 0.00 0.00 0.00 0.00 0.00 0.01 0.01 0.00 0.01 0.02 0.02 0.02 0.01 0.01
0.02 0.03 0.05 0.08 0.10 0.09 0.05 0.03 0.03 0.03 0.02 0.02 0.02 0.00 0.00 0.00 0.00 0.00 0.00 0.01 0.01 0.01 0.02 0.03 0.02 0.01 0.01 0.01 0.01 0.00 0.00 0.01 0.00 0.01 0.01 0.01 0.01 0.02 0.03 0.02 0.02 0.01 0.01
0.01 0.02 0.02 0.03 0.04 0.07 0.07 0.04 0.03 0.03 0.03 0.03 0.04 0.03 0.01 0.01 0.01 0.01 0.01 0.01 0.00 0.01 0.01 0.02 0.02 0.01 0.01 0.01 0.01 0.01 0.01 0.01 0.01 0.01 0.02 0.01 0.01 0.03 0.05 0.03 0.02 0.01 0.00
0.00 0.01 0.02 0.02 0.02 0.03 0.04 0.03 0.02 0.03 0.04 0.03 0.04 0.05 0.03 0.02 0.02 0.01 0.01 0.00 0.00 0.00 0.01 0.02 0.03 0.02 0.01 0.01 0.02 0.02 0.01 0.01 0.01 0.02 0.01 0.01 0.02 0.04 0.06 0.03 0.02 0.02 0.02
0.00 0.01 0.02 0.02 0.02 0.01 0.01 0.02 0.02 0.02 0.04 0.04 0.05 0.04 0.05 0.03 0.02 0.02 0.01 0.01 0.01 0.00 0.01 0.02 0.03 0.02 0.02 0.02 0.03 0.03 0.02 0.02 0.02 0.02 0.02 0.01 0.02 0.04 0.05 0.04 0.04 0.03 0.02
0.00 0.00 0.01 0.01 0.02 0.02 0.03 0.02 0.02 0.02 0.04 0.04 0.05 0.05 0.07 0.06 0.04 0.03 0.02 0.01 0.01 0.01 0.01 0.01 0.01 0.03 0.04 0.03 0.04 0.05 0.06 0.05 0.03 0.02 0.02 0.02 0.01 0.03 0.03 0.04 0.05 0.04 0.03
0.00 0.00 0.00 0.01 0.01 0.02 0.03 0.03 0.03 0.03 0.04 0.04 0.03 0.02 0.04 0.07 0.05 0.03 0.02 0.02 0.02 0.02 0.01 0.01 0.01 0.02 0.03 0.02 0.02 0.03 0.04 0.04 0.04 0.03 0.02 0.02 0.01 0.01 0.02 0.01 0.02 0.02 0.01
0.01 0.00 0.01 0.01 0.02 0.02 0.03 0.03 0.02 0.03 0.04 0.04 0.03 0.03 0.04 0.05 0.04 0.03 0.01 0.01 0.02 0.01 0.01 0.01 0.01 0.02 0.02 0.02 0.02 0.03 0.03 0.02 0.02 0.02 0.02 0.02 0.01 0.01 0.01 0.01 0.01 0.01 0.01
0.01 0.01 0.01 0.02 0.02 0.01 0.02 0.03 0.03 0.03 0.03 0.03 0.03 0.03 0.03 0.04 0.04 0.03 0.02 0.02 0.02 0.02 0.01 0.01 0.01 0.01 0.01 0.01 0.02 0.03 0.03 0.02 0.01 0.01 0.02 0.02 0.01 0.02 0.02 0.02 0.02 0.02 0.01
0.01 0.01 0.01 0.02 0.02 0.02 0.02 0.02 0.03 0.03 0.02 0.03 0.04 0.03 0.03 0.05 0.04 0.03 0.03 0.02 0.02 0.02 0.02 0.02 0.02 0.02 0.01 0.01 0.02 0.02 0.02 0.03 0.03 0.03 0.04 0.04 0.04 0.03 0.03 0.03 0.03 0.03 0.03
0.01 0.01 0.01 0.02 0.03 0.04 0.03 0.02 0.02 0.02 0.03 0.02 0.03 0.03 0.03 0.05 0.06 0.03 0.03 0.02 0.01 0.02 0.02 0.03 0.03 0.02 0.01 0.01 0.01 0.01 0.02 0.03 0.04 0.04 0.04 0.04 0.04 0.04 0.04 0.03 0.03 0.03 0.03
0.01 0.02 0.02 0.03 0.03 0.03 0.03 0.02 0.02 0.02 0.02 0.02 0.03 0.03 0.03 0.03 0.04 0.05 0.04 0.04 0.04 0.04 0.03 0.03 0.03 0.03 0.03 0.02 0.01 0.01 0.02 0.03 0.04 0.04 0.03 0.02 0.02 0.03 0.05 0.04 0.04 0.03 0.03
0.02 0.02 0.02 0.02 0.02 0.03 0.03 0.03 0.03 0.03 0.02 0.01 0.01 0.03 0.04 0.03 0.03 0.03 0.04 0.05 0.05 0.05 0.05 0.04 0.03 0.03 0.02 0.02 0.02 0.02 0.02 0.02 0.02 0.02 0.02 0.02 0.02 0.03 0.03 0.03 0.03 0.03 0.03
0.04 0.04 0.04 0.02 0.02 0.02 0.03 0.03 0.03 0.03 0.03 0.02 0.01 0.02 0.03 0.03 0.02 0.02 0.02 0.03 0.04 0.04 0.05 0.05 0.05 0.04 0.02 0.02 0.02 0.02 0.01 0.02 0.02 0.01 0.02 0.01 0.01 0.02 0.02 0.02 0.02 0.02 0.02
0.05 0.05 0.04 0.02 0.01 0.02 0.02 0.02 0.03 0.02 0.02 0.03 0.02 0.02 0.02 0.02 0.02 0.02 0.02 0.03 0.03 0.04 0.04 0.03 0.03 0.02 0.02 0.01 0.02 0.02 0.02 0.02 0.02 0.02 0.01 0.01 0.01 0.01 0.01 0.01 0.01 0.01 0.02
0.03 0.06 0.06 0.04 0.02 0.02 0.03 0.03 0.03 0.02 0.02 0.03 0.02 0.02 0.01 0.01 0.01 0.01 0.02 0.03 0.03 0.03 0.02 0.01 0.01 0.02 0.02 0.01 0.01 0.02 0.01 0.02 0.02 0.01 0.00 0.00 0.00 0.00 0.00 0.00 0.01 0.01 0.01
0.01 0.02 0.04 0.04 0.04 0.03 0.04 0.04 0.03 0.03 0.03 0.03 0.03 0.03 0.02 0.03 0.03 0.02 0.02 0.02 0.02 0.02 0.02 0.02 0.01 0.01 0.01 0.01 0.01 0.01 0.01 0.01 0.01 0.01 0.00 0.00 0.00 0.00 0.00 0.00 0.00 0.01 0.01
0.00 0.00 0.01 0.01 0.02 0.02 0.03 0.03 0.03 0.03 0.03 0.04 0.03 0.03 0.02 0.03 0.03 0.02 0.02 0.02 0.02 0.03 0.02 0.02 0.01 0.01 0.01 0.01 0.01 0.01 0.01 0.01 0.01 0.01 0.01 0.01 0.00 0.00 0.00 0.00 0.01 0.01 0.01
0.01 0.01 0.01 0.01 0.02 0.02 0.02 0.02 0.03 0.03 0.03 0.04 0.05 0.03 0.02 0.02 0.02 0.02 0.02 0.03 0.03 0.03 0.03 0.02 0.02 0.01 0.01 0.01 0.01 0.01 0.01 0.01 0.01 0.01 0.00 0.01 0.00 0.00 0.00 0.00 0.01 0.01 0.01
0.00 0.01 0.01 0.02 0.03 0.02 0.01 0.01 0.02 0.02 0.02 0.03 0.03 0.03 0.02 0.02 0.02 0.02 0.02 0.03 0.03 0.03 0.02 0.02 0.02 0.02 0.02 0.02 0.01 0.01 0.01 0.02 0.02 0.02 0.01 0.01 0.01 0.01 0.01 0.01 0.01 0.02 0.01
0.01 0.01 0.02 0.02 0.02 0.02 0.02 0.02 0.01 0.01 0.01 0.02 0.03 0.02 0.02 0.02 0.02 0.02 0.02 0.02 0.02 0.03 0.02 0.02 0.02 0.02 0.02 0.02 0.02 0.01 0.02 0.02 0.02 0.01 0.01 0.01 0.01 0.01 0.01 0.02 0.01 0.01 0.01
0.02 0.02 0.02 0.02 0.02 0.02 0.02 0.02 0.02 0.01 0.01 0.02 0.02 0.02 0.02 0.02 0.02 0.02 0.02 0.02 0.02 0.02 0.02 0.02 0.02 0.02 0.02 0.02 0.02 0.02 0.02 0.02 0.01 0.00 0.00 0.01 0.01 0.01 0.02 0.02 0.01 0.01 0.00
0.03 0.02 0.02 0.02 0.02 0.02 0.02 0.02 0.02 0.01 0.01 0.02 0.02 0.02 0.02 0.02 0.03 0.02 0.02 0.01 0.01 0.01 0.01 0.01 0.01 0.01 0.01 0.02 0.03 0.03 0.02 0.01 0.01 0.01 0.01 0.00 0.00 0.01 0.01 0.01 0.01 0.01 0.00
0.02 0.03 0.02 0.02 0.02 0.02 0.02 0.02 0.02 0.02 0.02 0.02 0.02 0.02 0.02 0.02 0.03 0.03 0.03 0.02 0.01 0.01 0.01 0.01 0.01 0.01 0.02 0.03 0.03 0.02 0.02 0.02 0.01 0.00 0.00 0.00 0.01 0.01 0.01 0.01 0.01 0.01 0.00
MSLP
1020.31 1020.26 1020.18 1020.07 1019.94 1019.78 1019.63 1019.49 1019.37 1019.30 1019.25 1019.24 1019.26 1019.27 1019.28 1019.28 1019.24 1019.18 1019.10 1019.00 1018.91 1018.82 1018.76 1018.72 1018.71 1018.73 1018.78 1018.85 1018.95 1019.06 1019.18 1019.30 1019.40 1019.48 1019.53 1019.53 1019.49 1019.40 1019.27 1019.12 1018.96 1018.82 1018.71
1020.59 1020.56 1020.47 1020.34 1020.15 1019.94 1019.74 1019.56 1019.43 1019.38 1019.39 1019.47 1019.58 1019.69 1019.79 1019.84 1019.84 1019.78 1019.67 1019.53 1019.38 1019.24 1019.13 1019.05 1019.00 1019.00 1019.03 1019.09 1019.17 1019.28 1019.39 1019.52 1019.64 1019.75 1019.83 1019.87 1019.86 1019.80 1019.70 1019.56 1019.40 1019.25 1019.12
1020.71 1020.72 1020.66 1020.53 1020.34 1020.11 1019.87 1019.68 1019.56 1019.53 1019.60 1019.75 1019.94 1020.14 1020.31 1020.42 1020.44 1020.39 1020.26 1020.09 1019.90 1019.72 1019.56 1019.44 1019.37 1019.34 1019.35 1019.39 1019.45 1019.54 1019.65 1019.77 1019.90 1020.03 1020.14 1020.21 1020.25 1020.23 1020.16 1020.04 1019.90 1019.76 1019.63
1020.68 1020.76 1020.77 1020.68 1020.51 1020.28 1020.05 1019.86 1019.75 1019.75 1019.86 1020.06 1020.31 1020.57 1020.80 1020.94 1020.99 1020.95 1020.82 1020.64 1020.43 1020.22 1020.04 1019.91 1019.82 1019.77 1019.76 1019.78 1019.82 1019.89 1019.98 1020.10 1020.22 1020.35 1020.47 1020.57 1020.64 1020.66 1020.62 1020.55 1020.44 1020.32 1020.20
1020.55 1020.72 1020.80 1020.78 1020.66 1020.47 1020.26 1020.08 1019.99 1020.00 1020.13 1020.36 1020.64 1020.94 1021.20 1021.37 1021.45 1021.42 1021.31 1021.13 1020.93 1020.73 1020.55 1020.42 1020.33 1020.28 1020.27 1020.28 1020.31 1020.36 1020.42 1020.51 1020.61 1020.73 1020.84 1020.95 1021.02 1021.06 1021.06 1021.02 1020.96 1020.87 1020.79
1020.37 1020.63 1020.81 1020.87 1020.81 1020.67 1020.49 1020.32 1020.23 1020.25 1020.38 1020.61 1020.90 1021.21 1021.48 1021.68 1021.79 1021.79 1021.70 1021.56 1021.39 1021.22 1021.08 1020.97 1020.90 1020.87 1020.87 1020.88 1020.90 1020.93 1020.97 1021.02 1021.09 1021.17 1021.25 1021.33 1021.39 1021.44 1021.46 1021.45 1021.43 1021.39 1021.35
1020.20 1020.55 1020.81 1020.95 1020.95 1020.86 1020.71 1020.56 1020.47 1020.48 1020.59 1020.81 1021.09 1021.39 1021.67 1021.89 1022.02 1022.06 1022.02 1021.93 1021.81 1021.69 1021.60 1021.54 1021.51 1021.51 1021.53 1021.55 1021.57 1021.59 1021.60 1021.62 1021.63 1021.66 1021.69 1021.72 1021.76 1021.79 1021.82 1021.84 1021.85 1021.87 1021.87
1020.08 1020.49 1020.83 1021.03 1021.10 1021.05 1020.93 1020.79 1020.70 1020.69 1020.78 1020.97 1021.23 1021.53 1021.81 1022.04 1022.20 1022.29 1022.30 1022.27 1022.21 1022.16 1022.13 1022.12 1022.15 1022.19 1022.24 1022.28 1022.31 1022.32 1022.31 1022.28 1022.25 1022.21 1022.18 1022.16 1022.15 1022.15 1022.17 1022.21 1022.26 1022.33 1022.39
1020.04 1020.51 1020.89 1021.14 1021.25 1021.24 1021.14 1021.02 1020.93 1020.91 1020.98 1021.15 1021.40 1021.68 1021.97 1022.22 1022.41 1022.54 1022.61 1022.63 1022.64 1022.65 1022.67 1022.73 1022.80 1022.89 1022.97 1023.04 1023.08 1023.09 1023.07 1023.01 1022.93 1022.84 1022.75 1022.67 1022.61 1022.58 1022.59 1022.64 1022.72 1022.84 1022.96
1020.11 1020.60 1021.01 1021.29 1021.43 1021.45 1021.38 1021.28 1021.19 1021.18 1021.25 1021.41 1021.65 1021.93 1022.23 1022.49 1022.71 1022.88 1023.00 1023.07 1023.13 1023.19 1023.26 1023.36 1023.47 1023.59 1023.71 1023.81 1023.88 1023.90 1023.88 1023.81 1023.70 1023.57 1023.43 1023.30 1023.19 1023.13 1023.13 1023.19 1023.30 1023.46 1023.64
1020.29 1020.78 1021.19 1021.48 1021.65 1021.69 1021.65 1021.58 1021.53 1021.54 1021.63 1021.80 1022.05 1022.34 1022.64 1022.93 1023.17 1023.37 1023.52 1023.63 1023.72 1023.81 1023.91 1024.03 1024.17 1024.32 1024.46 1024.59 1024.69 1024.73 1024.73 1024.67 1024.56 1024.41 1024.25 1024.09 1023.96 1023.88 1023.86 1023.93 1024.06 1024.25 1024.47
1020.56 1021.03 1021.43 1021.72 1021.90 1021.97 1021.97 1021.95 1021.94 1022.00 1022.13 1022.33 1022.60 1022.91 1023.23 1023.53 1023.79 1024.01 1024.17 1024.30 1024.41 1024.51 1024.62 1024.75 1024.90 1025.06 1025.23 1025.38 1025.51 1025.59 1025.62 1025.58 1025.49 1025.36 1025.20 1025.04 1024.90 1024.81 1024.80 1024.87 1025.01 1025.22 1025.47
1020.87 1021.31 1021.69 1021.98 1022.16 1022.26 1022.32 1022.35 1022.42 1022.54 1022.72 1022.98 1023.29 1023.62 1023.96 1024.27 1024.54 1024.76 1024.94 1025.07 1025.18 1025.27 1025.38 1025.51 1025.66 1025.83 1026.01 1026.19 1026.34 1026.46 1026.53 1026.54 1026.50 1026.40 1026.27 1026.13 1026.00 1025.92 1025.91 1025.98 1026.13 1026.35 1026.60
1021.17 1021.58 1021.93 1022.20 1022.40 1022.54 1022.65 1022.77 1022.91 1023.11 1023.37 1023.68 1024.03 1024.40 1024.75 1025.08 1025.36 1025.58 1025.75 1025.89 1025.99 1026.09 1026.19 1026.31 1026.45 1026.62 1026.81 1027.00 1027.19 1027.34 1027.46 1027.52 1027.52 1027.48 1027.39 1027.29 1027.20 1027.14 1027.14 1027.21 1027.35 1027.55 1027.79
1021.40 1021.77 1022.09 1022.35 1022.56 1022.75 1022.93 1023.13 1023.37 1023.65 1023.99 1024.37 1024.76 1025.16 1025.54 1025.87 1026.16 1026.39 1026.57 1026.71 1026.82 1026.91 1027.01 1027.13 1027.27 1027.44 1027.63 1027.83 1028.03 1028.22 1028.37 1028.48 1028.54 1028.55 1028.52 1028.47 1028.41 1028.37 1028.38 1028.45 1028.58 1028.76 1028.97
1021.51 1021.83 1022.12 1022.37 1022.61 1022.85 1023.10 1023.39 1023.73 1024.11 1024.52 1024.96 1025.41 1025.84 1026.23 1026.59 1026.89 1027.13 1027.33 1027.49 1027.62 1027.73 1027.84 1027.97 1028.11 1028.28 1028.46 1028.67 1028.88 1029.08 1029.26 1029.41 1029.51 1029.58 1029.60 1029.59 1029.57 1029.56 1029.59 1029.65 1029.75 1029.90 1030.06
1021.44 1021.72 1021.99 1022.24 1022.51 1022.81 1023.14 1023.52 1023.95 1024.42 1024.92 1025.42 1025.91 1026.38 1026.80 1027.18 1027.51 1027.78 1028.01 1028.21 1028.38 1028.53 1028.67 1028.82 1028.97 1029.14 1029.32 1029.52 1029.72 1029.92 1030.11 1030.28 1030.42 1030.52 1030.59 1030.63 1030.65 1030.66 1030.69 1030.74 1030.83 1030.93 1031.05
1021.19 1021.44 1021.69 1021.96 1022.27 1022.63 1023.05 1023.52 1024.05 1024.60 1025.17 1025.73 1026.27 1026.77 1027.23 1027.65 1028.01 1028.33 1028.62 1028.87 1029.10 1029.31 1029.50 1029.67 1029.85 1030.02 1030.19 1030.38 1030.56 1030.75 1030.94 1031.11 1031.27 1031.39 1031.49 1031.57 1031.62 1031.66 1031.69 1031.74 1031.79 1031.86 1031.92
1020.79 1021.01 1021.27 1021.56 1021.92 1022.36 1022.86 1023.42 1024.03 1024.67 1025.30 1025.92 1026.51 1027.05 1027.55 1028.01 1028.43 1028.81 1029.17 1029.49 1029.79 1030.06 1030.31 1030.53 1030.72 1030.90 1031.07 1031.23 1031.40 1031.57 1031.74 1031.91 1032.07 1032.21 1032.34 1032.44 1032.52 1032.58 1032.62 1032.65 1032.68 1032.70 1032.71
1020.30 1020.53 1020.80 1021.13 1021.55 1022.05 1022.63 1023.28 1023.96 1024.67 1025.36 1026.03 1026.67 1027.26 1027.80 1028.31 1028.79 1029.24 1029.67 1030.07 1030.45 1030.78 1031.09 1031.35 1031.57 1031.76 1031.92 1032.07 1032.22 1032.37 1032.52 1032.69 1032.85 1033.01 1033.16 1033.28 1033.38 1033.46 1033.51 1033.53 1033.53 1033.52 1033.47
1019.83 1020.07 1020.37 1020.75 1021.22 1021.78 1022.43 1023.14 1023.89 1024.65 1025.40 1026.11 1026.79 1027.42 1028.02 1028.58 1029.12 1029.64 1030.14 1030.61 1031.06 1031.46 1031.81 1032.11 1032.35 1032.55 1032.72 1032.86 1033.00 1033.14 1033.29 1033.45 1033.63 1033.81 1033.97 1034.12 1034.25 1034.34 1034.39 1034.40 1034.38 1034.32 1034.23
1019.46 1019.72 1020.06 1020.48 1021.00 1021.61 1022.31 1023.07 1023.86 1024.65 1025.44 1026.19 1026.90 1027.58 1028.22 1028.83 1029.43 1030.01 1030.56 1031.10 1031.59 1032.04 1032.44 1032.76 1033.03 1033.25 1033.42 1033.57 1033.71 1033.86 1034.02 1034.20 1034.40 1034.60 1034.80 1034.98 1035.12 1035.22 1035.27 1035.27 1035.22 1035.12 1034.98
1019.25 1019.55 1019.92 1020.38 1020.93 1021.57 1022.29 1023.07 1023.88 1024.69 1025.49 1026.26 1027.00 1027.71 1028.39 1029.05 1029.69 1030.32 1030.92 1031.50 1032.03 1032.51 1032.93 1033.28 1033.57 1033.80 1034.00 1034.17 1034.33 1034.51 1034.70 1034.92 1035.15 1035.39 1035.62 1035.82 1035.98 1036.09 1036.14 1036.12 1036.04 1035.90 1035.70
1019.25 1019.58 1019.98 1020.45 1021.02 1021.66 1022.38 1023.14 1023.94 1024.74 1025.54 1026.32 1027.08 1027.81 1028.53 1029.22 1029.90 1030.56 1031.19 1031.79 1032.35 1032.84 1033.28 1033.64 1033.95 1034.20 1034.42 1034.63 1034.84 1035.07 1035.31 1035.58 1035.86 1036.14 1036.40 1036.63 1036.80 1036.91 1036.95 1036.90 1036.79 1036.60 1036.36
1019.43 1019.78 1020.20 1020.67 1021.23 1021.85 1022.53 1023.26 1024.02 1024.80 1025.58 1026.35 1027.11 1027.86 1028.60 1029.32 1030.02 1030.71 1031.36 1031.97 1032.53 1033.03 1033.47 1033.85 1034.17 1034.46 1034.72 1034.98 1035.24 1035.53 1035.84 1036.17 1036.50 1036.82 1037.12 1037.36 1037.54 1037.64 1037.65 1037.58 1037.43 1037.20 1036.91
1019.71 1020.09 1020.50 1020.97 1021.49 1022.07 1022.70 1023.37 1024.08 1024.82 1025.57 1026.33 1027.09 1027.85 1028.60 1029.34 1030.07 1030.77 1031.43 1032.05 1032.61 1033.11 1033.56 1033.95 1034.29 1034.61 1034.92 1035.23 1035.56 1035.91 1036.28 1036.67 1037.05 1037.41 1037.73 1037.98 1038.15 1038.23 1038.21 1038.11 1037.92 1037.65 1037.33
Thickness
5725 5727 5728 5728 5727 5726 5724 5723 5721 5721 5720 5719 5717 5716 5715 5716 5717 5718 5719 5719 5718 5718 5716 5715 5713 5712 5709 5707 5705 5702 5699 5696 5695 5692 5689 5689 5689 5688 5687 5687 5686 5686 5685
5720 5722 5724 5724 5724 5723 5721 5720 5719 5718 5718 5717 5716 5715 5714 5713 5713 5714 5715 5715 5715 5714 5713 5712 5710 5708 5706 5703 5701 5699 5696 5693 5692 5688 5683 5679 5680 5682 5682 5682 5681 5681 5680
5717 5719 5719 5720 5720 5719 5718 5718 5717 5716 5715 5715 5713 5712 5710 5709 5709 5709 5710 5711 5711 5711 5710 5709 5707 5705 5704 5701 5699 5698 5695 5690 5688 5688 5683 5676 5672 5673 5675 5676 5676 5676 5675
5718 5717 5717 5717 5717 5718 5717 5716 5715 5714 5713 5712 5711 5709 5706 5703 5704 5705 5706 5707 5707 5707 5706 5705 5704 5702 5701 5699 5698 5696 5694 5691 5686 5684 5683 5681 5677 5671 5667 5669 5670 5671 5670
5716 5716 5716 5717 5717 5717 5715 5714 5712 5711 5710 5710 5708 5706 5704 5703 5702 5702 5702 5702 5703 5703 5703 5702 5700 5699 5698 5696 5695 5693 5691 5689 5685 5682 5680 5677 5674 5672 5667 5663 5663 5664 5665
5716 5716 5716 5716 5715 5714 5713 5711 5709 5708 5707 5707 5705 5704 5702 5700 5699 5698 5698 5697 5698 5698 5698 5698 5696 5695 5694 5693 5691 5690 5688 5686 5684 5681 5679 5676 5673 5669 5666 5661 5658 5658 5659
5714 5713 5712 5712 5711 5711 5710 5709 5707 5705 5704 5703 5702 5702 5700 5699 5697 5696 5695 5694 5693 5693 5694 5694 5693 5692 5691 5689 5688 5686 5684 5682 5680 5678 5676 5675 5673 5670 5666 5662 5657 5655 5655
5713 5712 5712 5711 5711 5710 5708 5707 5705 5703 5702 5701 5700 5699 5698 5696 5695 5694 5693 5692 5691 5691 5691 5690 5689 5688 5687 5686 5684 5682 5680 5678 5677 5675 5673 5672 5670 5668 5666 5662 5657 5652 5650
5711 5711 5711 5710 5709 5708 5707 5706 5704 5702 5700 5698 5697 5696 5695 5694 5693 5692 5691 5690 5689 5688 5687 5686 5685 5684 5683 5682 5680 5678 5675 5674 5672 5671 5670 5668 5666 5665 5663 5661 5659 5654 5648
5707 5708 5708 5707 5707 5707 5706 5705 5703 5701 5699 5697 5695 5694 5692 5691 5690 5689 5687 5687 5686 5685 5684 5682 5681 5679 5678 5677 5675 5673 5671 5669 5668 5666 5665 5663 5662 5661 5660 5658 5656 5654 5650
5703 5704 5705 5705 5704 5703 5703 5701 5699 5698 5696 5694 5693 5691 5690 5688 5687 5685 5685 5684 5682 5681 5680 5679 5677 5675 5673 5673 5671 5669 5667 5665 5664 5662 5661 5659 5658 5657 5656 5654 5653 5650 5648
5701 5702 5703 5701 5700 5699 5699 5698 5697 5695 5693 5692 5690 5688 5687 5685 5683 5682 5681 5680 5679 5677 5676 5675 5673 5671 5670 5669 5667 5665 5663 5661 5659 5658 5657 5655 5655 5653 5652 5650 5648 5647 5645
5698 5698 5699 5698 5697 5697 5696 5695 5694 5693 5691 5689 5687 5684 5683 5681 5680 5679 5678 5676 5675 5673 5672 5671 5669 5668 5666 5665 5663 5661 5659 5657 5656 5654 5653 5651 5651 5649 5647 5645 5644 5642 5641
5694 5694 5694 5694 5695 5694 5694 5693 5691 5690 5688 5686 5683 5681 5680 5679 5677 5676 5674 5673 5672 5670 5668 5667 5666 5664 5663 5661 5659 5657 5655 5653 5652 5651 5649 5648 5647 5645 5643 5642 5639 5638 5635
5690 5690 5691 5690 5691 5690 5690 5690 5688 5687 5685 5683 5680 5679 5677 5676 5674 5672 5670 5669 5668 5667 5665 5663 5661 5660 5659 5657 5655 5653 5651 5649 5648 5647 5646 5645 5644 5643 5641 5639 5636 5634 5630
5687 5687 5688 5688 5688 5688 5687 5686 5685 5684 5682 5680 5678 5676 5674 5672 5670 5668 5666 5665 5663 5661 5659 5658 5657 5656 5656 5655 5653 5651 5648 5645 5644 5642 5641 5641 5640 5639 5637 5635 5633 5631 5627
5685 5684 5685 5686 5686 5686 5686 5684 5683 5682 5679 5677 5675 5673 5671 5668 5666 5665 5662 5660 5658 5656 5654 5653 5652 5651 5651 5650 5649 5647 5644 5642 5640 5639 5637 5637 5635 5633 5631 5630 5628 5626 5625
5683 5683 5684 5684 5685 5685 5684 5683 5680 5678 5676 5674 5672 5670 5668 5665 5663 5660 5658 5656 5654 5652 5650 5649 5648 5647 5647 5646 5645 5642 5640 5637 5636 5634 5633 5631 5629 5628 5626 5624 5621 5619 5618
5682 5682 5683 5682 5682 5682 5681 5679 5676 5674 5672 5671 5669 5667 5665 5662 5659 5656 5654 5652 5650 5648 5646 5645 5644 5643 5642 5641 5640 5638 5634 5632 5630 5629 5628 5626 5624 5623 5621 5619 5615 5613 5611
5680 5681 5681 5680 5679 5679 5677 5674 5672 5670 5669 5669 5668 5666 5663 5660 5657 5654 5651 5649 5646 5644 5642 5640 5639 5638 5637 5636 5635 5633 5630 5626 5624 5623 5622 5621 5620 5619 5616 5613 5610 5607 5604
5678 5678 5678 5677 5677 5676 5674 5671 5669 5668 5669 5667 5665 5663 5660 5658 5655 5651 5648 5645 5642 5639 5637 5635 5634 5633 5633 5632 5631 5628 5625 5623 5620 5618 5616 5616 5615 5613 5611 5609 5606 5604 5600
5674 5674 5674 5673 5674 5673 5672 5669 5667 5668 5666 5663 5660 5658 5656 5654 5651 5647 5644 5641 5638 5634 5632 5630 5628 5627 5627 5627 5625 5623 5621 5619 5616 5614 5613 5611 5610 5608 5606 5604 5601 5598 5595
5669 5669 5669 5669 5669 5669 5669 5666 5666 5665 5663 5660 5657 5654 5652 5650 5647 5644 5640 5637 5634 5631 5628 5626 5624 5622 5621 5621 5620 5618 5617 5615 5612 5610 5609 5607 5605 5603 5600 5598 5595 5592 5587
5663 5664 5664 5664 5664 5665 5666 5665 5664 5662 5659 5656 5653 5650 5647 5645 5643 5640 5638 5634 5631 5628 5625 5623 5620 5618 5616 5615 5614 5612 5610 5609 5606 5604 5603 5601 5599 5596 5594 5591 5588 5584 5581
5658 5658 5658 5659 5660 5661 5661 5662 5661 5658 5655 5652 5650 5647 5644 5642 5639 5637 5635 5633 5632 5630 5626 5623 5620 5616 5613 5613 5612 5609 5607 5604 5602 5599 5595 5592 5590 5588 5586 5583 5580 5577 5574
5652 5652 5653 5655 5656 5656 5657 5657 5657 5655 5651 5648 5646 5644 5640 5637 5635 5631 5628 5628 5627 5625 5624 5622 5619 5617 5615 5612 5609 5607 5604 5601 5599 5594 5590 5587 5585 5583 5580 5577 5574 5571 5568